Location: Laterina
(43.5167°N, 11.7167°E)
Time: 16:08:14
(UTC+00:00)

YAOGAN 1 - Pass Details

Date: 24 September 2020
Orbit: 618 x 620 km, 97.9° (Epoch: 26 October)

Event Time Altitude Azimuth Distance (km) Brightness Sun altitude
Rises 18:27:20 0° 187° (S) 2,883 5.9 -15.4°
Reaches altitude 10° 18:29:40 10° 196° (SSW) 1,982 5.2 -15.8°
Maximum altitude 18:33:37 35° 262° (W) 999 4.2 -16.5°
Drops below altitude 10° 18:37:38 10° 330° (NNW) 1,996 5.8 -17.2°
Sets 18:39:59 0° 339° (NNW) 2,907 6.6 -17.6°
